When you browse on this site, cookies collect data to enhance your experience and personalize the content and advertising you see.
Visit our Privacy Policy to learn more. By continuing to use the site, you agree to this use of cookies and data.
  • En España
  • Lista de países
  • Para 7 días
  • Temperatura del agua
  • Mapa Satelital
  • El tiempo en el mapa
  • Informadores
  • user-avatar
    Iniciar sesión

    Tiempo cada hora Kerns

    Hoy, 23 Abril, Martes

    Tiempo Temperatura Precipitaciones Viento Presión Humedad
    00:00 +24°C° 0 mm 3 mps 760 mmHg 94%
    01:00 +24°C° 0 mm 3 mps 760 mmHg 95%
    02:00 +24°C° 0 mm 3 mps 760 mmHg 95%
    03:00 +24°C° 0 mm 3 mps 760 mmHg 95%
    04:00 +24°C° 0 mm 3 mps 759 mmHg 95%
    05:00 +24°C° 0 mm 3 mps 760 mmHg 94%
    06:00 +24°C° 0 mm 3 mps 760 mmHg 94%
    07:00 +23°C° 0 mm 4 mps 760 mmHg 93%
    08:00 +26°C° 0 mm 4 mps 760 mmHg 85%
    09:00 +28°C° 0 mm 4 mps 760 mmHg 76%
    10:00 +30°C° 0 mm 4 mps 760 mmHg 68%
    11:00 +32°C° 0 mm 4 mps 760 mmHg 64%
    12:00 +33°C° 0 mm 5 mps 759 mmHg 61%
    13:00 +34°C° 0 mm 5 mps 759 mmHg 58%
    14:00 +33°C° 0 mm 5 mps 759 mmHg 60%
    15:00 +33°C° 0 mm 5 mps 758 mmHg 63%
    16:00 +32°C° 0 mm 5 mps 758 mmHg 66%
    17:00 +30°C° 0 mm 4 mps 758 mmHg 74%
    18:00 +28°C° 0 mm 4 mps 759 mmHg 83%
    19:00 +26°C° 0 mm 4 mps 759 mmHg 91%
    20:00 +26°C° 0 mm 3 mps 759 mmHg 92%
    21:00 +26°C° 0 mm 3 mps 760 mmHg 93%
    22:00 +25°C° 0 mm 3 mps 760 mmHg 94%
    23:00 +25°C° 0 mm 3 mps 760 mmHg 94%

    Mañana, 24 Abril, Miércoles

    Tiempo Temperatura Precipitaciones Viento Presión Humedad
    00:00 +25°C° 0 mm 3 mps 759 mmHg 94%
    01:00 +25°C° 0 mm 3 mps 759 mmHg 94%
    02:00 +25°C° 0 mm 3 mps 759 mmHg 94%
    03:00 +25°C° 0 mm 3 mps 759 mmHg 94%
    04:00 +24°C° 0 mm 3 mps 758 mmHg 94%
    05:00 +24°C° 0 mm 3 mps 759 mmHg 93%
    06:00 +24°C° 0 mm 3 mps 759 mmHg 93%
    07:00 +25°C° 0 mm 3 mps 759 mmHg 92%
    08:00 +27°C° 0 mm 3 mps 759 mmHg 84%
    09:00 +29°C° 0 mm 4 mps 760 mmHg 75%
    10:00 +32°C° 0 mm 4 mps 760 mmHg 66%
    11:00 +33°C° 0 mm 4 mps 759 mmHg 63%
    12:00 +33°C° 0 mm 4 mps 759 mmHg 61%
    13:00 +34°C° 0 mm 4 mps 759 mmHg 58%
    14:00 +34°C° 0 mm 4 mps 758 mmHg 60%
    15:00 +33°C° 0 mm 4 mps 757 mmHg 62%
    16:00 +33°C° 0 mm 4 mps 757 mmHg 65%
    17:00 +30°C° 0 mm 4 mps 757 mmHg 74%
    18:00 +28°C° 0 mm 3 mps 758 mmHg 84%
    19:00 +26°C° 0 mm 3 mps 758 mmHg 93%
    20:00 +26°C° 0 mm 3 mps 759 mmHg 94%
    21:00 +26°C° 0 mm 3 mps 759 mmHg 94%
    22:00 +25°C° 0 mm 3 mps 760 mmHg 95%
    23:00 +25°C° 0 mm 3 mps 759 mmHg 95%

    Pasado mañana, 25 Abril, Jueves

    Tiempo Temperatura Precipitaciones Viento Presión Humedad
    00:00 +25°C° 0 mm 3 mps 759 mmHg 95%
    01:00 +25°C° 0 mm 3 mps 759 mmHg 95%
    02:00 +25°C° 0 mm 3 mps 758 mmHg 95%
    03:00 +25°C° 0 mm 3 mps 758 mmHg 95%
    04:00 +25°C° 0 mm 3 mps 758 mmHg 95%
    05:00 +25°C° 0 mm 3 mps 758 mmHg 94%
    06:00 +25°C° 0 mm 3 mps 758 mmHg 94%
    07:00 +25°C° 0 mm 3 mps 758 mmHg 93%
    08:00 +27°C° 0.1 mm 3 mps 759 mmHg 87%
    09:00 +28°C° 0.1 mm 3 mps 759 mmHg 81%
    10:00 +30°C° 0.1 mm 4 mps 760 mmHg 75%
    11:00 +32°C° 0.1 mm 4 mps 759 mmHg 71%
    12:00 +32°C° 0.1 mm 4 mps 758 mmHg 67%
    13:00 +33°C° 0.1 mm 4 mps 758 mmHg 63%
    14:00 +33°C° 0 mm 4 mps 757 mmHg 65%
    15:00 +32°C° 0 mm 4 mps 757 mmHg 67%
    16:00 +32°C° 0 mm 4 mps 756 mmHg 68%
    17:00 +29°C° 0 mm 3 mps 757 mmHg 77%
    18:00 +28°C° 0 mm 3 mps 758 mmHg 86%
    19:00 +26°C° 0 mm 3 mps 758 mmHg 94%
    20:00 +26°C° 0 mm 3 mps 759 mmHg 95%
    21:00 +26°C° 0 mm 3 mps 759 mmHg 95%
    22:00 +25°C° 0 mm 3 mps 760 mmHg 96%
    23:00 +25°C° 0.1 mm 3 mps 759 mmHg 96%

    26 Abril, Viernes

    Tiempo Temperatura Precipitaciones Viento Presión Humedad
    00:00 +25°C° 0.1 mm 3 mps 759 mmHg 96%
    01:00 +25°C° 0.1 mm 3 mps 759 mmHg 97%
    02:00 +25°C° 0.1 mm 3 mps 758 mmHg 97%
    03:00 +25°C° 0.1 mm 3 mps 758 mmHg 97%
    04:00 +25°C° 0.1 mm 3 mps 758 mmHg 97%
    05:00 +25°C° 0 mm 3 mps 758 mmHg 97%
    06:00 +25°C° 0 mm 3 mps 758 mmHg 97%
    07:00 +25°C° 0 mm 3 mps 759 mmHg 96%
    08:00 +27°C° 0.1 mm 4 mps 759 mmHg 88%
    09:00 +28°C° 0.1 mm 4 mps 759 mmHg 80%
    10:00 +30°C° 0.1 mm 4 mps 760 mmHg 72%
    11:00 +32°C° 0 mm 4 mps 759 mmHg 67%
    12:00 +33°C° 0 mm 4 mps 758 mmHg 62%
    13:00 +34°C° 0 mm 4 mps 758 mmHg 56%
    14:00 +33°C° 0 mm 4 mps 757 mmHg 59%
    15:00 +33°C° 0 mm 4 mps 757 mmHg 62%
    16:00 +32°C° 0 mm 4 mps 757 mmHg 64%
    17:00 +29°C° 0 mm 4 mps 757 mmHg 74%
    18:00 +28°C° 0 mm 4 mps 758 mmHg 83%
    19:00 +26°C° 0 mm 4 mps 759 mmHg 93%
    20:00 +26°C° 0.1 mm 4 mps 759 mmHg 93%
    21:00 +26°C° 0.1 mm 4 mps 760 mmHg 93%
    22:00 +26°C° 0.1 mm 4 mps 760 mmHg 93%
    23:00 +26°C° 0.1 mm 4 mps 760 mmHg 94%

    27 Abril, Sábado

    Tiempo Temperatura Precipitaciones Viento Presión Humedad
    00:00 +25°C° 0.1 mm 4 mps 759 mmHg 94%
    01:00 +25°C° 0.1 mm 4 mps 759 mmHg 95%
    02:00 +25°C° 0.1 mm 4 mps 759 mmHg 95%
    03:00 +25°C° 0.1 mm 4 mps 759 mmHg 95%
    04:00 +25°C° 0.1 mm 4 mps 758 mmHg 95%
    05:00 +25°C° 0.1 mm 4 mps 759 mmHg 94%
    06:00 +25°C° 0.1 mm 4 mps 759 mmHg 94%
    07:00 +25°C° 0.1 mm 4 mps 760 mmHg 94%
    08:00 +26°C° 0.2 mm 5 mps 760 mmHg 89%
    09:00 +28°C° 0.2 mm 5 mps 760 mmHg 85%
    10:00 +29°C° 0.2 mm 5 mps 760 mmHg 80%
    11:00 +29°C° 0.3 mm 5 mps 760 mmHg 79%
    12:00 +29°C° 0.3 mm 5 mps 759 mmHg 77%
    13:00 +29°C° 0.3 mm 5 mps 759 mmHg 76%
    14:00 +29°C° 0.3 mm 5 mps 759 mmHg 78%
    15:00 +29°C° 0.3 mm 5 mps 759 mmHg 79%
    16:00 +28°C° 0.3 mm 5 mps 759 mmHg 81%
    17:00 +27°C° 0.3 mm 5 mps 759 mmHg 85%
    18:00 +26°C° 0.3 mm 5 mps 760 mmHg 89%
    19:00 +25°C° 0.3 mm 5 mps 760 mmHg 93%
    20:00 +25°C° 0.2 mm 5 mps 761 mmHg 92%
    21:00 +25°C° 0.2 mm 5 mps 761 mmHg 92%
    22:00 +24°C° 0.2 mm 6 mps 761 mmHg 91%
    23:00 +24°C° 0.1 mm 6 mps 761 mmHg 91%

    28 Abril, Domingo

    Tiempo Temperatura Precipitaciones Viento Presión Humedad
    00:00 +24°C° 0.1 mm 6 mps 760 mmHg 90%
    01:00 +24°C° 0.1 mm 6 mps 760 mmHg 90%
    02:00 +24°C° 0 mm 6 mps 760 mmHg 90%
    03:00 +24°C° 0 mm 6 mps 760 mmHg 90%
    04:00 +24°C° 0 mm 6 mps 759 mmHg 89%
    05:00 +24°C° 0.1 mm 6 mps 760 mmHg 89%
    06:00 +24°C° 0.1 mm 6 mps 760 mmHg 88%
    07:00 +24°C° 0.1 mm 6 mps 761 mmHg 88%
    08:00 +26°C° 0.1 mm 6 mps 761 mmHg 82%
    09:00 +27°C° 0.1 mm 6 mps 761 mmHg 77%
    10:00 +28°C° 0.1 mm 7 mps 761 mmHg 71%
    11:00 +29°C° 0 mm 7 mps 761 mmHg 67%
    12:00 +29°C° 0 mm 7 mps 760 mmHg 64%
    13:00 +30°C° 0 mm 7 mps 760 mmHg 60%
    14:00 +30°C° 0 mm 7 mps 759 mmHg 62%
    15:00 +29°C° 0 mm 6 mps 759 mmHg 64%
    16:00 +29°C° 0 mm 6 mps 759 mmHg 66%
    17:00 +28°C° 0 mm 6 mps 760 mmHg 71%
    18:00 +26°C° 0 mm 6 mps 760 mmHg 76%
    19:00 +24°C° 0 mm 6 mps 761 mmHg 82%
    20:00 +24°C° 0.1 mm 6 mps 761 mmHg 82%
    21:00 +24°C° 0.1 mm 6 mps 761 mmHg 83%
    22:00 +24°C° 0.1 mm 6 mps 761 mmHg 84%
    23:00 +24°C° 0.1 mm 6 mps 761 mmHg 86%
    Mostrar más